Terminal Aerodrome Forecast
Issued by NWS Chicago, IL

Home | Current Version | Previous Version | Graphics & Text | Print | Product List | Glossary On
Versions: 1 2 3 4 5 6 7 8 9 10 11 12 13 14 15 16 17 18 19 20 21 22 23 24 25 26 27 28 29 30 31 32 33 34 35 36 37
000
FTUS43 KLOT 171500 AAC
TAFRFD
TAF AMD
KRFD 171543Z 1716/1812 06009KT 6SM HZ OVC010
     FM171800 07010KT P6SM SCT009 BKN015
     FM172000 08009KT P6SM SCT015 BKN025
     FM180300 09006KT P6SM SCT025
     FM180600 VRB03KT 3SM BR BKN015=

USA.gov is the U.S. government's official web portal to all federal, state and local government web resources and services.